Time,TemperatureF,DewpointF,PressureIn,WindDirection,WindDirectionDegrees,WindSpeedMPH,WindSpeedGustMPH,Humidity,HourlyPrecipIn,Conditions,Clouds,dailyrainin,SoftwareType,DateUTC
2013-02-02 00:04:00,20.3,3.3,30.48,WSW,244,2.1,4.7,43,0.00,,,0.00,WSDL version 420,2013-02-02 05:04:00,
2013-02-02 00:09:00,20.3,3.3,30.48,WNW,302,3.3,4.7,43,0.00,,,0.00,WSDL version 420,2013-02-02 05:09:00,
2013-02-02 00:14:00,20.3,3.3,30.48,West,260,3.0,5.4,43,0.00,,,0.00,WSDL version 420,2013-02-02 05:14:00,
2013-02-02 00:19:00,20.3,2.9,30.48,WSW,239,2.9,5.4,42,0.00,,,0.00,WSDL version 420,2013-02-02 05:19:00,
2013-02-02 00:24:00,20.3,3.0,30.47,WSW,245,3.2,7.4,43,0.00,,,0.00,WSDL version 420,2013-02-02 05:24:00,
2013-02-02 00:29:00,20.3,3.0,30.47,WNW,295,2.6,7.4,42,0.00,,,0.00,WSDL version 420,2013-02-02 05:29:00,
2013-02-02 00:34:00,20.3,2.8,30.48,West,259,2.2,4.3,41,0.00,,,0.00,WSDL version 420,2013-02-02 05:34:00,
2013-02-02 00:39:00,20.3,3.0,30.48,West,273,3.0,4.3,42,0.00,,,0.00,WSDL version 420,2013-02-02 05:39:00,
2013-02-02 00:44:00,20.3,2.8,30.48,WNW,286,1.7,4.3,42,0.00,,,0.00,WSDL version 420,2013-02-02 05:44:00,
2013-02-02 00:49:00,20.3,3.0,30.47,WSW,238,3.4,6.3,41,0.00,,,0.00,WSDL version 420,2013-02-02 05:49:00,
2013-02-02 00:54:00,20.3,1.7,30.47,West,276,3.0,6.3,40,0.00,,,0.00,WSDL version 420,2013-02-02 05:54:00,
2013-02-02 00:59:00,20.3,2.3,30.47,WNW,287,1.4,5.4,42,0.00,,,0.00,WSDL version 420,2013-02-02 05:59:00,
2013-02-02 01:04:00,20.4,3.0,30.44,West,280,2.9,5.6,42,0.00,,,0.00,WSDL version 420,2013-02-02 06:04:00,
2013-02-02 01:09:00,20.5,3.0,30.44,West,273,2.2,5.6,42,0.00,,,0.00,WSDL version 420,2013-02-02 06:09:00,
2013-02-02 01:14:00,20.6,3.2,30.44,West,270,3.0,4.3,42,0.00,,,0.00,WSDL version 420,2013-02-02 06:14:00,
2013-02-02 01:19:00,20.7,3.2,30.47,WNW,289,2.6,4.3,42,0.00,,,0.00,WSDL version 420,2013-02-02 06:19:00,
2013-02-02 01:24:00,20.7,3.1,30.47,WNW,283,3.7,4.9,41,0.00,,,0.00,WSDL version 420,2013-02-02 06:24:00,
2013-02-02 01:29:00,20.7,3.1,30.47,West,273,3.4,4.9,41,0.00,,,0.00,WSDL version 420,2013-02-02 06:29:00,
2013-02-02 01:34:00,20.8,2.8,30.44,West,273,3.3,4.9,41,0.00,,,0.00,WSDL version 420,2013-02-02 06:34:00,
2013-02-02 01:39:00,20.9,3.4,30.44,West,278,3.4,4.9,42,0.00,,,0.00,WSDL version 420,2013-02-02 06:39:00,
2013-02-02 01:44:00,20.8,3.2,30.43,West,276,4.9,6.3,41,0.00,,,0.00,WSDL version 420,2013-02-02 06:44:00,
2013-02-02 01:49:00,20.8,2.5,30.47,West,280,4.3,6.3,40,0.00,,,0.00,WSDL version 420,2013-02-02 06:49:00,
2013-02-02 01:54:00,20.7,2.5,30.47,West,270,4.0,6.0,41,0.00,,,0.00,WSDL version 420,2013-02-02 06:54:00,
2013-02-02 01:59:00,20.7,2.3,30.47,WNW,285,3.6,5.8,40,0.00,,,0.00,WSDL version 420,2013-02-02 06:59:00,
2013-02-02 02:04:00,20.7,2.2,30.44,West,278,3.4,5.6,40,0.00,,,0.00,WSDL version 420,2013-02-02 07:04:00,
2013-02-02 02:09:00,20.7,2.4,30.44,West,264,2.8,5.6,41,0.00,,,0.00,WSDL version 420,2013-02-02 07:09:00,
2013-02-02 02:14:00,20.8,3.1,30.44,West,273,1.1,4.9,42,0.00,,,0.00,WSDL version 420,2013-02-02 07:14:00,
2013-02-02 02:19:00,21.0,3.6,30.44,WSW,250,0.0,3.4,42,0.00,,,0.00,WSDL version 420,2013-02-02 07:19:00,
2013-02-02 02:24:00,20.9,3.6,30.44,SSW,213,0.0,3.4,43,0.00,,,0.00,WSDL version 420,2013-02-02 07:24:00,
2013-02-02 02:29:00,20.8,3.8,30.44,WSW,242,0.0,1.3,43,0.00,,,0.00,WSDL version 420,2013-02-02 07:29:00,
2013-02-02 02:34:00,20.7,3.7,30.44,West,273,0.0,2.0,43,0.00,,,0.00,WSDL version 420,2013-02-02 07:34:00,
2013-02-02 02:39:00,20.7,3.7,30.44,West,273,2.5,3.1,43,0.00,,,0.00,WSDL version 420,2013-02-02 07:39:00,
2013-02-02 02:44:00,20.5,3.8,30.44,West,265,1.8,3.4,44,0.00,,,0.00,WSDL version 420,2013-02-02 07:44:00,
2013-02-02 02:49:00,20.4,3.9,30.44,West,260,1.6,3.4,44,0.00,,,0.00,WSDL version 420,2013-02-02 07:49:00,
2013-02-02 02:54:00,20.3,3.8,30.44,NW,321,0.6,2.7,44,0.00,,,0.00,WSDL version 420,2013-02-02 07:54:00,
2013-02-02 02:59:00,20.3,3.6,30.44,NNW,332,0.3,2.5,43,0.00,,,0.00,WSDL version 420,2013-02-02 07:59:00,
2013-02-02 03:06:00,20.4,3.9,30.44,NW,315,0.0,2.2,44,0.00,,,0.00,WSDL version 420,2013-02-02 08:06:00,
2013-02-02 03:11:00,20.5,4.0,30.44,SW,236,0.7,2.5,44,0.00,,,0.00,WSDL version 420,2013-02-02 08:11:00,
2013-02-02 03:16:00,20.6,4.1,30.44,West,273,0.8,3.4,45,0.00,,,0.00,WSDL version 420,2013-02-02 08:16:00,
2013-02-02 03:21:00,20.8,4.7,30.44,West,273,0.0,3.4,45,0.00,,,0.00,WSDL version 420,2013-02-02 08:21:00,
2013-02-02 03:26:00,20.8,4.7,30.44,West,270,0.0,2.0,45,0.00,,,0.00,WSDL version 420,2013-02-02 08:26:00,
2013-02-02 03:31:00,20.8,4.7,30.44,NW,326,0.0,0.0,45,0.00,,,0.00,WSDL version 420,2013-02-02 08:31:00,
2013-02-02 03:36:00,20.8,4.7,30.44,WNW,302,0.5,2.2,45,0.00,,,0.00,WSDL version 420,2013-02-02 08:36:00,
2013-02-02 03:41:00,20.8,4.4,30.44,WNW,283,0.8,2.7,44,0.00,,,0.00,WSDL version 420,2013-02-02 08:41:00,
2013-02-02 03:46:00,20.7,4.2,30.44,WSW,256,1.6,2.7,44,0.00,,,0.00,WSDL version 420,2013-02-02 08:46:00,
2013-02-02 03:51:00,20.7,4.1,30.44,WNW,288,0.6,2.5,44,0.00,,,0.00,WSDL version 420,2013-02-02 08:51:00,
2013-02-02 03:56:00,20.5,4.0,30.44,WNW,284,0.6,2.5,44,0.00,,,0.00,WSDL version 420,2013-02-02 08:56:00,
2013-02-02 04:01:00,20.5,4.4,30.44,WNW,295,0.0,2.7,45,0.00,,,0.00,WSDL version 420,2013-02-02 09:01:00,
2013-02-02 04:06:00,20.4,4.3,30.44,West,278,2.2,3.8,45,0.00,,,0.00,WSDL version 420,2013-02-02 09:06:00,
2013-02-02 04:11:00,20.3,4.2,30.44,WNW,298,2.4,3.8,45,0.00,,,0.00,WSDL version 420,2013-02-02 09:11:00,
2013-02-02 04:16:00,20.2,4.2,30.44,WSW,256,2.3,3.1,45,0.00,,,0.00,WSDL version 420,2013-02-02 09:16:00,
2013-02-02 04:21:00,20.1,4.1,30.44,WSW,245,1.4,3.4,45,0.00,,,0.00,WSDL version 420,2013-02-02 09:21:00,
2013-02-02 04:26:00,20.1,4.1,30.44,WNW,295,1.2,3.4,45,0.00,,,0.00,WSDL version 420,2013-02-02 09:26:00,
2013-02-02 04:31:00,20.1,4.1,30.44,WNW,289,1.6,2.5,45,0.00,,,0.00,WSDL version 420,2013-02-02 09:31:00,
2013-02-02 04:36:00,20.1,4.1,30.41,WNW,293,0.2,2.7,45,0.00,,,0.00,WSDL version 420,2013-02-02 09:36:00,
2013-02-02 04:41:00,20.1,4.1,30.41,WNW,293,0.0,2.7,45,0.00,,,0.00,WSDL version 420,2013-02-02 09:41:00,
2013-02-02 04:46:00,20.3,4.6,30.41,WNW,287,1.1,2.0,46,0.00,,,0.00,WSDL version 420,2013-02-02 09:46:00,
2013-02-02 04:51:00,20.3,4.7,30.41,NW,312,1.6,2.5,46,0.00,,,0.00,WSDL version 420,2013-02-02 09:51:00,
2013-02-02 04:56:00,20.1,4.5,30.41,WNW,290,0.9,2.5,46,0.00,,,0.00,WSDL version 420,2013-02-02 09:56:00,
2013-02-02 05:01:00,20.1,4.4,30.41,NW,310,2.3,3.1,45,0.00,,,0.00,WSDL version 420,2013-02-02 10:01:00,
2013-02-02 05:06:00,20.0,4.1,30.41,WNW,284,1.6,3.1,46,0.00,,,0.00,WSDL version 420,2013-02-02 10:06:00,
2013-02-02 05:11:00,20.1,4.5,30.41,WNW,293,2.1,2.5,47,0.00,,,0.00,WSDL version 420,2013-02-02 10:11:00,
2013-02-02 05:16:00,20.0,4.5,30.41,NW,315,1.4,2.5,46,0.00,,,0.00,WSDL version 420,2013-02-02 10:16:00,
2013-02-02 05:21:00,19.9,4.3,30.41,West,280,1.6,2.5,46,0.00,,,0.00,WSDL version 420,2013-02-02 10:21:00,
2013-02-02 05:26:00,19.9,4.2,30.41,WNW,293,2.5,3.1,45,0.00,,,0.00,WSDL version 420,2013-02-02 10:26:00,
2013-02-02 05:31:00,19.6,3.8,30.41,West,270,1.7,3.1,46,0.00,,,0.00,WSDL version 420,2013-02-02 10:31:00,
2013-02-02 05:36:00,19.7,4.1,30.41,West,275,1.5,3.1,46,0.00,,,0.00,WSDL version 420,2013-02-02 10:36:00,
2013-02-02 05:41:00,19.7,4.3,30.41,West,276,0.0,2.5,47,0.00,,,0.00,WSDL version 420,2013-02-02 10:41:00,
2013-02-02 05:46:00,19.8,4.6,30.41,West,280,1.1,2.2,47,0.00,,,0.00,WSDL version 420,2013-02-02 10:46:00,
2013-02-02 05:51:00,19.7,4.5,30.45,West,281,1.5,2.5,47,0.00,,,0.00,WSDL version 420,2013-02-02 10:51:00,
2013-02-02 05:56:00,19.5,4.3,30.45,West,275,1.4,2.7,47,0.00,,,0.00,WSDL version 420,2013-02-02 10:56:00,
2013-02-02 06:01:00,19.6,4.7,30.45,WNW,283,2.1,2.7,48,0.00,,,0.00,WSDL version 420,2013-02-02 11:01:00,
2013-02-02 06:06:00,19.5,4.6,30.45,WNW,293,2.3,2.7,47,0.00,,,0.00,WSDL version 420,2013-02-02 11:06:00,
2013-02-02 06:11:00,19.4,4.2,30.45,WNW,293,1.7,3.4,47,0.00,,,0.00,WSDL version 420,2013-02-02 11:11:00,
2013-02-02 06:16:00,19.3,4.4,30.45,WNW,284,0.6,3.4,48,0.00,,,0.00,WSDL version 420,2013-02-02 11:16:00,
2013-02-02 06:21:00,19.4,4.3,30.45,NW,318,1.0,2.5,47,0.00,,,0.00,WSDL version 420,2013-02-02 11:21:00,
2013-02-02 06:26:00,19.3,4.1,30.45,WNW,290,0.6,2.2,47,0.00,,,0.00,WSDL version 420,2013-02-02 11:26:00,
2013-02-02 06:31:00,19.4,4.6,30.45,West,280,0.4,2.2,48,0.00,,,0.00,WSDL version 420,2013-02-02 11:31:00,
2013-02-02 06:36:00,19.4,4.9,30.45,West,270,0.4,2.2,48,0.00,,,0.00,WSDL version 420,2013-02-02 11:36:00,
2013-02-02 06:41:00,19.3,4.6,30.45,WNW,290,0.6,2.7,48,0.00,,,0.00,WSDL version 420,2013-02-02 11:41:00,
2013-02-02 06:46:00,19.2,4.3,30.45,WNW,293,0.0,2.7,48,0.00,,,0.00,WSDL version 420,2013-02-02 11:46:00,
2013-02-02 06:51:00,19.2,4.4,30.45,WNW,301,1.9,2.9,47,0.00,,,0.00,WSDL version 420,2013-02-02 11:51:00,
2013-02-02 06:56:00,19.0,3.8,30.45,WNW,293,1.1,2.9,46,0.00,,,0.00,WSDL version 420,2013-02-02 11:56:00,
2013-02-02 07:01:00,19.1,3.7,30.45,WNW,295,1.8,2.5,46,0.00,,,0.00,WSDL version 420,2013-02-02 12:01:00,
2013-02-02 07:06:00,19.3,4.2,30.45,WNW,293,0.0,2.5,48,0.00,,,0.00,WSDL version 420,2013-02-02 12:06:00,
2013-02-02 07:11:00,19.4,4.8,30.45,WNW,293,0.7,2.2,49,0.00,,,0.00,WSDL version 420,2013-02-02 12:11:00,
2013-02-02 07:16:00,19.6,5.2,30.45,WNW,293,0.0,2.2,49,0.00,,,0.00,WSDL version 420,2013-02-02 12:16:00,
2013-02-02 07:21:00,19.6,4.9,30.45,WNW,293,0.6,2.5,48,0.00,,,0.00,WSDL version 420,2013-02-02 12:21:00,
2013-02-02 07:26:00,19.6,4.8,30.45,West,264,1.3,2.5,48,0.00,,,0.00,WSDL version 420,2013-02-02 12:26:00,
2013-02-02 07:31:00,19.4,5.0,30.45,West,270,0.0,2.2,49,0.00,,,0.00,WSDL version 420,2013-02-02 12:31:00,
2013-02-02 07:36:00,19.5,5.1,30.45,West,278,0.6,2.0,49,0.00,,,0.00,WSDL version 420,2013-02-02 12:36:00,
2013-02-02 07:41:00,19.6,5.3,30.45,West,280,1.6,2.5,49,0.00,,,0.00,WSDL version 420,2013-02-02 12:41:00,
2013-02-02 07:46:00,19.8,5.4,30.45,West,270,0.0,2.5,49,0.00,,,0.00,WSDL version 420,2013-02-02 12:46:00,
2013-02-02 07:51:00,19.9,5.7,30.45,West,270,0.0,2.0,49,0.00,,,0.00,WSDL version 420,2013-02-02 12:51:00,
2013-02-02 07:56:00,20.0,5.6,30.45,WNW,293,0.0,0.0,49,0.00,,,0.00,WSDL version 420,2013-02-02 12:56:00,
2013-02-02 08:01:00,20.1,5.3,30.45,WNW,293,1.9,2.7,48,0.00,,,0.00,WSDL version 420,2013-02-02 13:01:00,
2013-02-02 08:06:00,20.2,5.7,30.45,WNW,293,0.6,2.7,49,0.00,,,0.00,WSDL version 420,2013-02-02 13:06:00,
2013-02-02 08:11:00,20.3,5.9,30.45,WNW,293,0.7,2.2,49,0.00,,,0.00,WSDL version 420,2013-02-02 13:11:00,
2013-02-02 08:16:00,20.3,6.0,30.45,WNW,293,0.0,2.2,49,0.00,,,0.00,WSDL version 420,2013-02-02 13:16:00,
2013-02-02 08:21:00,20.5,6.3,30.45,NW,315,1.8,2.2,49,0.00,,,0.00,WSDL version 420,2013-02-02 13:21:00,
2013-02-02 08:26:00,20.7,6.2,30.45,West,263,1.0,2.2,49,0.00,,,0.00,WSDL version 420,2013-02-02 13:26:00,
2013-02-02 08:31:00,20.8,6.4,30.45,West,270,0.0,2.0,49,0.00,,,0.00,WSDL version 420,2013-02-02 13:31:00,
2013-02-02 08:36:00,21.0,6.6,30.45,West,270,0.0,0.0,50,0.00,,,0.00,WSDL version 420,2013-02-02 13:36:00,
2013-02-02 08:41:00,21.7,7.0,30.45,West,270,0.0,0.0,48,0.00,,,0.00,WSDL version 420,2013-02-02 13:41:00,
2013-02-02 08:46:00,22.5,7.8,30.45,WSW,242,0.0,0.0,49,0.00,,,0.00,WSDL version 420,2013-02-02 13:46:00,
2013-02-02 08:51:00,22.9,8.4,30.45,SSE,158,0.0,0.0,49,0.00,,,0.00,WSDL version 420,2013-02-02 13:51:00,
2013-02-02 08:56:00,23.1,8.2,30.45,ESE,115,0.0,0.0,48,0.00,,,0.00,WSDL version 420,2013-02-02 13:56:00,
2013-02-02 09:01:00,23.4,8.4,30.45,WNW,293,0.0,0.0,48,0.00,,,0.00,WSDL version 420,2013-02-02 14:01:00,
2013-02-02 09:06:00,24.2,9.3,30.44,WNW,293,0.0,0.0,48,0.00,,,0.00,WSDL version 420,2013-02-02 14:06:00,
2013-02-02 09:11:00,24.6,9.0,30.44,SSE,154,0.0,0.0,47,0.00,,,0.00,WSDL version 420,2013-02-02 14:11:00,
2013-02-02 09:16:00,25.3,8.8,30.44,SSW,211,0.0,0.0,43,0.00,,,0.00,WSDL version 420,2013-02-02 14:16:00,
2013-02-02 09:21:00,25.6,8.3,30.44,SSE,160,0.0,1.1,43,0.00,,,0.00,WSDL version 420,2013-02-02 14:21:00,
2013-02-02 09:26:00,26.4,9.4,30.44,ESE,105,0.0,2.5,43,0.00,,,0.00,WSDL version 420,2013-02-02 14:26:00,
2013-02-02 09:31:00,26.9,9.3,30.44,ESE,122,1.5,2.7,42,0.00,,,0.00,WSDL version 420,2013-02-02 14:31:00,
2013-02-02 09:36:00,28.3,10.0,30.44,SE,130,2.0,2.9,41,0.00,,,0.00,WSDL version 420,2013-02-02 14:36:00,
2013-02-02 09:41:00,29.7,11.1,30.43,SE,132,2.1,2.9,41,0.00,,,0.00,WSDL version 420,2013-02-02 14:41:00,
2013-02-02 09:46:00,30.2,10.9,30.43,SE,138,2.0,2.7,39,0.00,,,0.00,WSDL version 420,2013-02-02 14:46:00,
2013-02-02 09:51:00,30.6,10.0,30.40,ESE,123,2.4,3.1,36,0.00,,,0.00,WSDL version 420,2013-02-02 14:51:00,
2013-02-02 09:56:00,30.8,9.2,30.40,SE,135,2.8,3.4,34,0.00,,,0.00,WSDL version 420,2013-02-02 14:56:00,
2013-02-02 10:01:00,31.1,8.5,30.40,SSE,150,2.1,3.8,33,0.00,,,0.00,WSDL version 420,2013-02-02 15:01:00,
2013-02-02 10:06:00,31.4,8.6,30.43,SE,124,0.8,3.8,33,0.00,,,0.00,WSDL version 420,2013-02-02 15:06:00,
2013-02-02 10:11:00,32.2,6.8,30.43,SE,135,2.8,3.8,32,0.00,,,0.00,WSDL version 420,2013-02-02 15:11:00,
2013-02-02 10:16:00,32.5,6.3,30.43,SE,133,2.3,3.6,33,0.00,,,0.00,WSDL version 420,2013-02-02 15:16:00,
2013-02-02 10:26:00,33.2,6.2,30.39,SE,127,2.3,4.0,32,0.00,,,0.00,WSDL version 420,2013-02-02 15:26:00,
2013-02-02 10:31:00,33.0,5.8,30.39,ESE,116,2.6,5.6,31,0.00,,,0.00,WSDL version 420,2013-02-02 15:31:00,
2013-02-02 10:36:00,32.9,5.6,30.40,East,100,3.3,5.6,31,0.00,,,0.00,WSDL version 420,2013-02-02 15:36:00,
2013-02-02 10:41:00,32.9,5.5,30.39,ESE,113,3.2,4.3,31,0.00,,,0.00,WSDL version 420,2013-02-02 15:41:00,
2013-02-02 10:46:00,33.1,5.7,30.39,SE,132,2.7,4.3,31,0.00,,,0.00,WSDL version 420,2013-02-02 15:46:00,
2013-02-02 10:51:00,33.4,6.0,30.39,East,90,2.8,4.3,31,0.00,,,0.00,WSDL version 420,2013-02-02 15:51:00,
2013-02-02 10:56:00,33.5,5.5,30.39,ESE,113,3.0,4.7,30,0.00,,,0.00,WSDL version 420,2013-02-02 15:56:00,
2013-02-02 11:01:00,33.5,5.4,30.39,ESE,110,2.2,4.7,30,0.00,,,0.00,WSDL version 420,2013-02-02 16:01:00,
2013-02-02 11:06:00,34.2,6.0,30.39,SE,135,1.7,4.3,30,0.00,,,0.00,WSDL version 420,2013-02-02 16:06:00,
2013-02-02 11:11:00,34.6,6.3,30.39,ESE,110,2.6,4.0,30,0.00,,,0.00,WSDL version 420,2013-02-02 16:11:00,
2013-02-02 11:16:00,35.1,6.8,30.39,SE,124,3.0,4.3,30,0.00,,,0.00,WSDL version 420,2013-02-02 16:16:00,
2013-02-02 11:21:00,35.3,7.0,30.39,ESE,121,2.6,4.3,30,0.00,,,0.00,WSDL version 420,2013-02-02 16:21:00,
2013-02-02 11:26:00,35.3,6.9,30.39,East,100,2.4,3.8,30,0.00,,,0.00,WSDL version 420,2013-02-02 16:26:00,
2013-02-02 11:31:00,35.6,7.2,30.39,SE,141,1.9,3.4,30,0.00,,,0.00,WSDL version 420,2013-02-02 16:31:00,
2013-02-02 11:36:00,35.5,7.1,30.36,SE,135,1.3,3.1,30,0.00,,,0.00,WSDL version 420,2013-02-02 16:36:00,
2013-02-02 11:41:00,35.1,6.8,30.36,SE,146,0.6,2.5,30,0.00,,,0.00,WSDL version 420,2013-02-02 16:41:00,
2013-02-02 11:46:00,35.0,6.7,30.36,WNW,285,0.5,3.6,30,0.00,,,0.00,WSDL version 420,2013-02-02 16:46:00,
2013-02-02 11:51:00,35.0,6.7,30.36,West,276,0.9,3.6,30,0.00,,,0.00,WSDL version 420,2013-02-02 16:51:00,
2013-02-02 11:56:00,35.6,7.2,30.36,WNW,283,0.7,4.3,30,0.00,,,0.00,WSDL version 420,2013-02-02 16:56:00,
2013-02-02 12:01:00,36.6,8.1,30.35,South,191,1.5,4.3,30,0.00,,,0.00,WSDL version 420,2013-02-02 17:01:00,
2013-02-02 12:06:00,37.3,8.2,30.35,WSW,250,3.1,5.4,30,0.00,,,0.00,WSDL version 420,2013-02-02 17:06:00,
2013-02-02 12:11:00,37.5,8.3,30.35,SW,223,3.5,6.3,29,0.00,,,0.00,WSDL version 420,2013-02-02 17:11:00,
2013-02-02 12:16:00,38.3,8.8,30.35,SSW,212,2.9,6.3,29,0.00,,,0.00,WSDL version 420,2013-02-02 17:16:00,
2013-02-02 12:21:00,39.1,9.5,30.35,South,188,2.0,6.0,29,0.00,,,0.00,WSDL version 420,2013-02-02 17:21:00,
2013-02-02 12:26:00,38.9,9.4,30.35,West,266,3.1,5.8,29,0.00,,,0.00,WSDL version 420,2013-02-02 17:26:00,
2013-02-02 12:31:00,39.4,8.7,30.35,NW,321,3.2,7.2,26,0.00,,,0.00,WSDL version 420,2013-02-02 17:31:00,
2013-02-02 12:36:00,39.5,7.7,30.32,WSW,238,2.4,7.2,26,0.00,,,0.00,WSDL version 420,2013-02-02 17:36:00,
2013-02-02 12:41:00,38.9,6.9,30.32,WSW,256,3.9,6.5,26,0.00,,,0.00,WSDL version 420,2013-02-02 17:41:00,
2013-02-02 12:46:00,39.2,7.5,30.32,North,350,3.1,6.5,26,0.00,,,0.00,WSDL version 420,2013-02-02 17:46:00,
2013-02-02 12:51:00,39.6,8.2,30.31,SW,225,3.5,5.8,27,0.00,,,0.00,WSDL version 420,2013-02-02 17:51:00,
2013-02-02 12:56:00,39.7,7.6,30.32,SW,225,0.5,8.7,26,0.00,,,0.00,WSDL version 420,2013-02-02 17:56:00,
2013-02-02 13:01:00,40.3,8.4,30.31,WNW,287,3.4,8.7,26,0.00,,,0.00,WSDL version 420,2013-02-02 18:01:00,
2013-02-02 13:06:00,40.5,8.3,30.31,WSW,255,3.2,5.8,26,0.00,,,0.00,WSDL version 420,2013-02-02 18:06:00,
2013-02-02 13:11:00,40.4,8.2,30.31,NNW,329,2.7,5.8,26,0.00,,,0.00,WSDL version 420,2013-02-02 18:11:00,
2013-02-02 13:16:00,40.5,8.3,30.31,SW,223,2.4,4.9,26,0.00,,,0.00,WSDL version 420,2013-02-02 18:16:00,
2013-02-02 13:21:00,40.6,8.4,30.28,West,276,2.6,5.8,26,0.00,,,0.00,WSDL version 420,2013-02-02 18:21:00,
2013-02-02 13:26:00,40.7,8.5,30.28,NNW,332,1.9,5.8,26,0.00,,,0.00,WSDL version 420,2013-02-02 18:26:00,
2013-02-02 13:31:00,41.0,8.7,30.28,SSW,193,2.4,5.6,26,0.00,,,0.00,WSDL version 420,2013-02-02 18:31:00,
2013-02-02 13:36:00,40.6,8.4,30.28,NNW,328,2.9,5.6,26,0.00,,,0.00,WSDL version 420,2013-02-02 18:36:00,
2013-02-02 13:41:00,40.4,8.2,30.28,WNW,288,3.3,6.5,26,0.00,,,0.00,WSDL version 420,2013-02-02 18:41:00,
2013-02-02 13:46:00,39.9,7.8,30.28,WSW,245,2.0,6.5,26,0.00,,,0.00,WSDL version 420,2013-02-02 18:46:00,
2013-02-02 13:51:00,39.5,7.4,30.28,West,273,1.2,4.3,26,0.00,,,0.00,WSDL version 420,2013-02-02 18:51:00,
2013-02-02 13:56:00,38.9,7.9,30.28,NW,318,0.1,4.3,29,0.00,,,0.00,WSDL version 420,2013-02-02 18:56:00,
2013-02-02 14:01:00,38.8,9.3,30.28,NNW,335,0.4,2.7,29,0.00,,,0.00,WSDL version 420,2013-02-02 19:01:00,
2013-02-02 14:06:00,38.8,9.2,30.25,North,8,1.8,2.7,29,0.00,,,0.00,WSDL version 420,2013-02-02 19:06:00,
2013-02-02 14:11:00,38.6,9.1,30.25,SSW,203,1.0,2.7,29,0.00,,,0.00,WSDL version 420,2013-02-02 19:11:00,
2013-02-02 14:16:00,38.9,9.3,30.25,ENE,61,0.3,2.7,29,0.00,,,0.00,WSDL version 420,2013-02-02 19:16:00,
2013-02-02 14:21:00,39.2,9.6,30.25,South,180,1.0,2.5,29,0.00,,,0.00,WSDL version 420,2013-02-02 19:21:00,
2013-02-02 14:26:00,39.5,9.9,30.25,ESE,121,0.4,2.5,29,0.00,,,0.00,WSDL version 420,2013-02-02 19:26:00,
2013-02-02 14:31:00,39.5,9.8,30.25,West,280,0.2,2.7,29,0.00,,,0.00,WSDL version 420,2013-02-02 19:31:00,
2013-02-02 14:36:00,39.8,10.1,30.25,West,276,0.4,2.7,29,0.00,,,0.00,WSDL version 420,2013-02-02 19:36:00,
2013-02-02 14:41:00,39.8,10.1,30.25,West,278,2.0,3.6,29,0.00,,,0.00,WSDL version 420,2013-02-02 19:41:00,
2013-02-02 14:46:00,39.4,9.8,30.25,SSE,164,2.1,4.3,29,0.00,,,0.00,WSDL version 420,2013-02-02 19:46:00,
2013-02-02 14:51:00,39.3,10.3,30.25,SW,222,1.1,4.3,30,0.00,,,0.00,WSDL version 420,2013-02-02 19:51:00,
2013-02-02 14:56:00,39.1,10.6,30.25,West,276,2.5,4.3,31,0.00,,,0.00,WSDL version 420,2013-02-02 19:56:00,
2013-02-02 15:01:00,38.7,11.1,30.25,NW,315,1.9,5.6,32,0.00,,,0.00,WSDL version 420,2013-02-02 20:01:00,
2013-02-02 15:06:00,38.4,12.0,30.25,West,264,2.3,5.8,34,0.00,,,0.00,WSDL version 420,2013-02-02 20:06:00,
2013-02-02 15:11:00,38.1,12.7,30.25,WSW,244,1.6,5.8,35,0.00,,,0.00,WSDL version 420,2013-02-02 20:11:00,
2013-02-02 15:16:00,37.9,13.4,30.25,SSW,195,2.9,4.9,39,0.00,,,0.00,WSDL version 420,2013-02-02 20:16:00,
2013-02-02 15:21:00,37.5,15.4,30.22,West,259,2.1,5.4,41,0.00,,,0.00,WSDL version 420,2013-02-02 20:21:00,
2013-02-02 15:26:00,37.4,16.4,30.22,WSW,243,2.8,7.8,42,0.00,,,0.00,WSDL version 420,2013-02-02 20:26:00,
2013-02-02 15:31:00,37.3,16.8,30.22,WNW,293,3.8,7.8,44,0.00,,,0.00,WSDL version 420,2013-02-02 20:31:00,
2013-02-02 15:36:00,37.1,17.4,30.22,NW,309,3.4,6.3,45,0.00,,,0.00,WSDL version 420,2013-02-02 20:36:00,
2013-02-02 15:41:00,37.1,18.1,30.22,WSW,248,3.9,7.8,47,0.00,,,0.00,WSDL version 420,2013-02-02 20:41:00,
2013-02-02 15:46:00,36.9,18.6,30.22,WNW,287,3.0,7.8,47,0.00,,,0.00,WSDL version 420,2013-02-02 20:46:00,
2013-02-02 15:51:00,37.0,18.3,30.22,SW,223,3.3,5.6,46,0.00,,,0.00,WSDL version 420,2013-02-02 20:51:00,
2013-02-02 15:56:00,36.9,17.4,30.22,South,174,0.6,4.9,44,0.00,,,0.00,WSDL version 420,2013-02-02 20:56:00,
2013-02-02 16:01:00,36.9,17.5,30.22,North,349,1.8,2.7,46,0.00,,,0.00,WSDL version 420,2013-02-02 21:01:00,
2013-02-02 16:06:00,36.8,18.1,30.22,WNW,283,1.2,3.4,46,0.00,,,0.00,WSDL version 420,2013-02-02 21:06:00,
2013-02-02 16:11:00,36.9,17.5,30.22,West,262,0.0,3.4,45,0.00,,,0.00,WSDL version 420,2013-02-02 21:11:00,
2013-02-02 16:16:00,36.7,17.7,30.22,SW,215,2.6,4.3,46,0.00,,,0.00,WSDL version 420,2013-02-02 21:16:00,
2013-02-02 16:21:00,36.7,17.6,30.22,NNW,334,0.9,4.3,45,0.00,,,0.00,WSDL version 420,2013-02-02 21:21:00,
2013-02-02 16:26:00,36.4,17.1,30.22,NW,307,0.0,3.1,45,0.00,,,0.00,WSDL version 420,2013-02-02 21:26:00,
2013-02-02 16:31:00,36.4,17.0,30.22,South,174,0.0,2.9,45,0.00,,,0.00,WSDL version 420,2013-02-02 21:31:00,
2013-02-02 16:36:00,36.3,17.4,30.22,WSW,241,0.0,3.6,46,0.00,,,0.00,WSDL version 420,2013-02-02 21:36:00,
2013-02-02 16:41:00,36.1,17.3,30.22,NNE,13,1.5,3.6,45,0.00,,,0.00,WSDL version 420,2013-02-02 21:41:00,
2013-02-02 16:46:00,36.0,16.9,30.22,WSW,248,0.8,3.6,45,0.00,,,0.00,WSDL version 420,2013-02-02 21:46:00,
2013-02-02 16:51:00,35.9,16.9,30.19,North,11,0.6,3.8,46,0.00,,,0.00,WSDL version 420,2013-02-02 21:51:00,
2013-02-02 16:56:00,35.8,17.1,30.19,South,172,0.4,3.8,46,0.00,,,0.00,WSDL version 420,2013-02-02 21:56:00,
2013-02-02 17:01:00,35.7,17.5,30.19,ENE,71,0.6,2.0,48,0.00,,,0.00,WSDL version 420,2013-02-02 22:01:00,
2013-02-02 17:06:00,35.6,17.6,30.22,South,183,0.0,2.0,47,0.00,,,0.00,WSDL version 420,2013-02-02 22:06:00,
2013-02-02 17:11:00,35.5,17.6,30.22,South,172,0.0,3.4,48,0.00,,,0.00,WSDL version 420,2013-02-02 22:11:00,
2013-02-02 17:16:00,35.4,18.3,30.22,WNW,290,1.7,3.8,49,0.00,,,0.00,WSDL version 420,2013-02-02 22:16:00,
2013-02-02 17:21:00,35.3,18.3,30.22,WSW,248,0.0,3.8,49,0.00,,,0.00,WSDL version 420,2013-02-02 22:21:00,
2013-02-02 17:26:00,35.1,18.3,30.22,NW,310,0.0,3.4,50,0.00,,,0.00,WSDL version 420,2013-02-02 22:26:00,
2013-02-02 17:31:00,35.1,18.9,30.22,NW,323,2.1,4.0,52,0.00,,,0.00,WSDL version 420,2013-02-02 22:31:00,
2013-02-02 17:36:00,34.9,18.6,30.19,East,100,0.6,4.0,51,0.00,,,0.00,WSDL version 420,2013-02-02 22:36:00,
2013-02-02 17:41:00,34.9,18.7,30.19,SSW,198,0.0,2.0,52,0.00,,,0.00,WSDL version 420,2013-02-02 22:41:00,
2013-02-02 17:46:00,34.7,19.2,30.19,NW,326,1.3,3.1,54,0.00,,,0.00,WSDL version 420,2013-02-02 22:46:00,
2013-02-02 17:51:00,34.6,19.3,30.19,SSE,163,1.6,3.1,54,0.00,,,0.00,WSDL version 420,2013-02-02 22:51:00,
2013-02-02 17:56:00,34.5,20.2,30.19,ESE,116,1.8,3.4,55,0.00,,,0.00,WSDL version 420,2013-02-02 22:56:00,
2013-02-02 18:01:00,34.3,20.3,30.19,SE,128,0.6,3.4,56,0.00,,,0.00,WSDL version 420,2013-02-02 23:01:00,
2013-02-02 18:06:00,34.3,20.2,30.19,SSW,196,1.1,2.9,57,0.00,,,0.00,WSDL version 420,2013-02-02 23:06:00,
2013-02-02 18:11:00,34.3,20.6,30.19,West,273,0.8,2.7,57,0.00,,,0.00,WSDL version 420,2013-02-02 23:11:00,
2013-02-02 18:16:00,34.1,20.5,30.19,South,190,0.9,2.9,58,0.00,,,0.00,WSDL version 420,2013-02-02 23:16:00,
2013-02-02 18:21:00,34.0,20.7,30.19,SE,129,0.6,2.9,57,0.00,,,0.00,WSDL version 420,2013-02-02 23:21:00,
2013-02-02 18:26:00,33.9,21.0,30.19,West,265,1.5,3.4,60,0.00,,,0.00,WSDL version 420,2013-02-02 23:26:00,
2013-02-02 18:31:00,33.8,21.6,30.19,SW,228,2.1,4.3,63,0.00,,,0.00,WSDL version 420,2013-02-02 23:31:00,
2013-02-02 18:36:00,33.8,22.4,30.19,NW,304,1.1,4.3,63,0.00,,,0.00,WSDL version 420,2013-02-02 23:36:00,
2013-02-02 18:41:00,33.6,22.2,30.19,SW,217,0.0,3.4,62,0.00,,,0.00,WSDL version 420,2013-02-02 23:41:00,
2013-02-02 18:46:00,33.6,22.1,30.19,East,96,0.3,2.7,62,0.00,,,0.00,WSDL version 420,2013-02-02 23:46:00,
2013-02-02 18:51:00,33.4,23.1,30.19,SSE,166,1.4,2.9,66,0.00,,,0.00,WSDL version 420,2013-02-02 23:51:00,
2013-02-02 18:56:00,33.3,23.8,30.19,South,183,2.1,3.8,69,0.00,,,0.00,WSDL version 420,2013-02-02 23:56:00,
2013-02-02 19:01:00,-999.0,-99.9,30.19,SSE,164,0.5,3.8,-999,0.00,,,0.00,WSDL version 420,2013-02-03 00:01:00,
2013-02-02 19:06:00,33.2,23.5,30.19,ENE,76,0.0,2.5,67,0.00,,,0.00,WSDL version 420,2013-02-03 00:06:00,
2013-02-02 19:11:00,33.1,23.7,30.19,SSW,212,1.8,2.5,69,0.00,,,0.00,WSDL version 420,2013-02-03 00:11:00,
2013-02-02 19:16:00,33.1,24.5,30.19,ESE,118,0.0,2.9,71,0.00,,,0.00,WSDL version 420,2013-02-03 00:16:00,
2013-02-02 19:21:00,33.0,25.0,30.19,NNE,25,1.0,2.9,72,0.00,,,0.00,WSDL version 420,2013-02-03 00:21:00,
2013-02-02 19:26:00,32.9,24.9,30.19,NW,318,1.0,2.7,73,0.00,,,0.00,WSDL version 420,2013-02-03 00:26:00,
2013-02-02 19:31:00,32.8,25.1,30.19,NE,56,0.0,2.9,72,0.00,,,0.00,WSDL version 420,2013-02-03 00:31:00,
2013-02-02 19:36:00,32.7,25.3,30.19,ENE,58,0.0,3.1,74,0.00,,,0.00,WSDL version 420,2013-02-03 00:36:00,
2013-02-02 19:41:00,32.6,25.3,30.19,East,98,1.8,4.3,74,0.00,,,0.00,WSDL version 420,2013-02-03 00:41:00,
2013-02-02 19:46:00,32.5,25.3,30.19,SSE,152,2.0,4.3,75,0.00,,,0.00,WSDL version 420,2013-02-03 00:46:00,
2013-02-02 19:51:00,32.5,25.8,30.19,SE,138,1.1,3.1,76,0.00,,,0.00,WSDL version 420,2013-02-03 00:51:00,
2013-02-02 19:56:00,32.5,25.9,30.19,NNW,340,1.7,2.9,78,0.00,,,0.00,WSDL version 420,2013-02-03 00:56:00,
2013-02-02 20:01:00,32.5,26.5,30.19,East,83,0.9,2.9,77,0.00,,,0.00,WSDL version 420,2013-02-03 01:01:00,
2013-02-02 20:06:00,32.5,26.1,30.19,NE,56,0.0,3.1,77,0.00,,,0.00,WSDL version 420,2013-02-03 01:06:00,
2013-02-02 20:11:00,32.5,26.1,30.19,WSW,248,1.6,4.0,77,0.00,,,0.00,WSDL version 420,2013-02-03 01:11:00,
2013-02-02 20:16:00,32.5,26.3,30.19,WNW,290,0.4,4.0,79,0.00,,,0.00,WSDL version 420,2013-02-03 01:16:00,
2013-02-02 20:21:00,32.4,26.6,30.19,NE,40,0.4,3.8,79,0.00,,,0.00,WSDL version 420,2013-02-03 01:21:00,
2013-02-02 20:26:00,32.2,26.4,30.19,East,96,0.0,3.8,79,0.00,,,0.00,WSDL version 420,2013-02-03 01:26:00,
2013-02-02 20:31:00,32.3,26.5,30.19,SSW,211,1.8,3.4,79,0.00,,,0.00,WSDL version 420,2013-02-03 01:31:00,
2013-02-02 20:36:00,32.4,26.3,30.19,SW,236,0.8,3.1,78,0.00,,,0.00,WSDL version 420,2013-02-03 01:36:00,
2013-02-02 20:41:00,32.3,26.5,30.19,NE,51,0.0,3.1,80,0.00,,,0.00,WSDL version 420,2013-02-03 01:41:00,
2013-02-02 20:46:00,32.2,26.7,30.19,ENE,78,2.1,4.3,80,0.00,,,0.00,WSDL version 420,2013-02-03 01:46:00,
2013-02-02 20:51:00,32.2,26.8,30.19,ESE,122,0.8,4.3,80,0.00,,,0.00,WSDL version 420,2013-02-03 01:51:00,
2013-02-02 20:56:00,32.1,27.1,30.19,ESE,118,2.7,4.0,82,0.00,,,0.00,WSDL version 420,2013-02-03 01:56:00,
2013-02-02 21:01:00,32.0,27.6,30.19,SE,127,1.3,4.0,82,0.00,,,0.00,WSDL version 420,2013-02-03 02:01:00,
2013-02-02 21:06:00,32.0,27.9,30.19,SSE,163,2.1,4.7,83,0.00,,,0.00,WSDL version 420,2013-02-03 02:06:00,
2013-02-02 21:11:00,32.0,28.1,30.19,SSE,163,2.4,5.4,84,0.00,,,0.00,WSDL version 420,2013-02-03 02:11:00,
2013-02-02 21:16:00,32.0,28.3,30.18,NW,307,0.0,5.4,84,0.00,,,0.00,WSDL version 420,2013-02-03 02:16:00,
2013-02-02 21:21:00,32.1,28.1,30.18,ENE,58,0.8,3.6,84,0.00,,,0.00,WSDL version 420,2013-02-03 02:21:00,
2013-02-02 21:26:00,32.2,28.0,30.18,ENE,74,1.3,3.1,84,0.00,,,0.00,WSDL version 420,2013-02-03 02:26:00,
2013-02-02 21:31:00,32.2,28.0,30.18,East,88,0.0,3.1,84,0.00,,,0.00,WSDL version 420,2013-02-03 02:31:00,
2013-02-02 21:36:00,32.0,28.1,30.18,East,96,0.8,2.5,83,0.00,,,0.00,WSDL version 420,2013-02-03 02:36:00,
2013-02-02 21:41:00,32.0,28.0,30.18,ENE,75,0.7,2.5,83,0.00,,,0.00,WSDL version 420,2013-02-03 02:41:00,
2013-02-02 21:46:00,32.0,27.9,30.17,ESE,103,0.5,2.0,82,0.00,,,0.00,WSDL version 420,2013-02-03 02:46:00,
2013-02-02 21:51:00,32.0,27.9,30.17,East,84,0.6,2.9,83,0.00,,,0.00,WSDL version 420,2013-02-03 02:51:00,
2013-02-02 21:56:00,31.9,28.3,30.17,ESE,108,1.0,2.9,84,0.00,,,0.00,WSDL version 420,2013-02-03 02:56:00,
2013-02-02 22:01:00,31.9,28.1,30.17,ESE,119,1.2,3.4,83,0.00,,,0.00,WSDL version 420,2013-02-03 03:01:00,
2013-02-02 22:06:00,31.8,28.0,30.17,SSW,193,0.0,3.4,84,0.00,,,0.00,WSDL version 420,2013-02-03 03:06:00,
2013-02-02 22:11:00,31.8,28.0,30.17,ESE,115,1.5,3.6,84,0.00,,,0.00,WSDL version 420,2013-02-03 03:11:00,
2013-02-02 22:16:00,31.8,27.9,30.17,ESE,115,1.2,3.6,83,0.00,,,0.00,WSDL version 420,2013-02-03 03:16:00,
2013-02-02 22:21:00,31.8,28.3,30.17,South,172,0.6,2.7,86,0.00,,,0.00,WSDL version 420,2013-02-03 03:21:00,
2013-02-02 22:26:00,31.8,28.6,30.17,SE,135,1.0,2.9,87,0.00,,,0.00,WSDL version 420,2013-02-03 03:26:00,
2013-02-02 22:31:00,31.9,28.6,30.17,WNW,293,1.8,3.1,86,0.00,,,0.00,WSDL version 420,2013-02-03 03:31:00,
2013-02-02 22:36:00,32.0,28.5,30.17,WSW,250,0.0,3.1,84,0.00,,,0.00,WSDL version 420,2013-02-03 03:36:00,
2013-02-02 22:41:00,32.0,28.3,30.17,South,180,0.0,2.0,84,0.00,,,0.00,WSDL version 420,2013-02-03 03:41:00,
2013-02-02 22:46:00,32.0,28.3,30.17,SW,228,0.7,3.4,84,0.00,,,0.00,WSDL version 420,2013-02-03 03:46:00,
2013-02-02 22:51:00,32.2,28.0,30.17,SE,146,1.2,3.4,84,0.00,,,0.00,WSDL version 420,2013-02-03 03:51:00,
2013-02-02 22:56:00,32.2,27.8,30.17,East,84,0.5,3.4,83,0.00,,,0.00,WSDL version 420,2013-02-03 03:56:00,
2013-02-02 23:01:00,32.2,28.0,30.17,South,186,0.0,2.7,84,0.00,,,0.00,WSDL version 420,2013-02-03 04:01:00,
2013-02-02 23:06:00,32.2,28.0,30.13,WNW,287,0.0,2.7,84,0.00,,,0.00,WSDL version 420,2013-02-03 04:06:00,
2013-02-02 23:11:00,32.2,28.0,30.13,SSE,149,0.9,3.4,84,0.00,,,0.00,WSDL version 420,2013-02-03 04:11:00,
2013-02-02 23:16:00,32.2,27.9,30.13,West,268,0.4,3.4,83,0.00,,,0.00,WSDL version 420,2013-02-03 04:16:00,
2013-02-02 23:21:00,32.2,27.7,30.13,North,349,1.5,5.4,83,0.00,,,0.00,WSDL version 420,2013-02-03 04:21:00,
2013-02-02 23:26:00,32.4,27.9,30.13,SE,135,0.0,5.4,83,0.00,,,0.00,WSDL version 420,2013-02-03 04:26:00,
2013-02-02 23:31:00,32.4,27.8,30.13,SSW,193,0.5,1.3,82,0.00,,,0.00,WSDL version 420,2013-02-03 04:31:00,
2013-02-02 23:36:00,32.5,27.7,30.13,South,186,1.2,2.9,82,0.00,,,0.00,WSDL version 420,2013-02-03 04:36:00,
2013-02-02 23:41:00,32.5,27.7,30.13,SW,223,0.1,2.9,82,0.00,,,0.00,WSDL version 420,2013-02-03 04:41:00,
2013-02-02 23:46:00,32.4,27.6,30.13,WSW,256,0.4,3.1,82,0.00,,,0.00,WSDL version 420,2013-02-03 04:46:00,
2013-02-02 23:51:00,32.4,27.8,30.13,SW,233,0.5,3.6,83,0.00,,,0.00,WSDL version 420,2013-02-03 04:51:00,
2013-02-02 23:56:00,32.4,28.0,30.13,SW,235,1.3,3.6,83,0.00,,,0.00,WSDL version 420,2013-02-03 04:56:00,